TIME,�����g�[�mL�n,�t���O,�����g�[�mMJ�n,�t���O
2003/4/1 0:00,0.005659522,0,0.830817903,0
2003/4/1 0:15,0.00565799,0,0.830592932,0
2003/4/1 0:30,0.005659522,0,0.830817903,0
2003/4/1 0:45,0.00565799,0,0.830592932,0
2003/4/1 1:00,0.00565799,0,0.830592932,0
2003/4/1 1:15,0.005659522,0,0.830817903,0
2003/4/1 1:30,0.00565799,0,0.830592932,0
2003/4/1 1:45,0.00565799,0,0.830592932,0
2003/4/1 2:00,0.005659522,0,0.830817903,0
2003/4/1 2:15,0.00565799,0,0.830592932,0
2003/4/1 2:30,0.00565799,0,0.830592932,0
2003/4/1 2:45,0.005659522,0,0.830817903,0
2003/4/1 3:00,0.00565799,0,0.830592932,0
2003/4/1 3:15,0.00565799,0,0.830592932,0
2003/4/1 3:30,0.005659522,0,0.830817903,0
2003/4/1 3:45,0,0,0,0
2003/4/1 4:00,0,0,0,0
2003/4/1 4:15,0,0,0,0
2003/4/1 4:30,0,0,0,0
2003/4/1 4:45,0,0,0,0
2003/4/1 5:00,0,0,0,0
2003/4/1 5:15,0,0,0,0
2003/4/1 5:30,0,0,0,0
2003/4/1 5:45,0,0,0,0
2003/4/1 6:00,0,0,0,0
2003/4/1 6:15,0,0,0,0
2003/4/1 6:30,0,0,0,0
2003/4/1 6:45,0,0,0,0
2003/4/1 7:00,0,0,0,0
2003/4/1 7:15,0,0,0,0
2003/4/1 7:30,0.020017515,0,2.938571202,0
2003/4/1 7:45,0.009411082,0,1.381546911,0
2003/4/1 8:00,0.0064365,0,0.9448782,0
2003/4/1 8:15,0.006680167,0,0.980648589,0
2003/4/1 8:30,0.009443265,0,1.386271302,0
2003/4/1 8:45,0.00771154,0,1.132054072,0
2003/4/1 9:00,0.008031832,0,1.179073011,0
2003/4/1 9:15,0.007029578,0,1.031941977,0
2003/4/1 9:30,0.007679357,0,1.127329681,0
2003/4/1 9:45,0.007354468,0,1.079635829,0
2003/4/1 10:00,0.006891653,0,1.011694587,0
2003/4/1 10:15,0.008264773,0,1.213268603,0
2003/4/1 10:30,0.0088272,0,1.29583296,0
2003/4/1 10:45,0.008037962,0,1.179972895,0
2003/4/1 11:00,0.005029665,0,0.738354822,0
2003/4/1 11:15,0,0,0,0
2003/4/1 11:30,0,0,0,0
2003/4/1 11:45,0,0,0,0
2003/4/1 12:00,0,0,0,0
2003/4/1 12:15,0,0,0,0
2003/4/1 12:30,0,0,0,0
2003/4/1 12:45,0,0,0,0
2003/4/1 13:00,0,0,0,0
2003/4/1 13:15,0,0,0,0
2003/4/1 13:30,0,0,0,0
2003/4/1 13:45,0,0,0,0
2003/4/1 14:00,0,0,0,0
2003/4/1 14:15,0,0,0,0
2003/4/1 14:30,0,0,0,0
2003/4/1 14:45,0,0,0,0
2003/4/1 15:00,0,0,0,0
2003/4/1 15:15,0,0,0,0
2003/4/1 15:30,0.003068065,0,0.450391942,0
2003/4/1 15:45,0.008010377,0,1.175923417,0
2003/4/1 16:00,0.005662587,0,0.831267845,0
2003/4/1 16:15,0.005661055,0,0.831042874,0
2003/4/1 16:30,0.00566412,0,0.831492816,0
2003/4/1 16:45,0.00565799,0,0.830592932,0
2003/4/1 17:00,0.005659522,0,0.830817903,0
2003/4/1 17:15,0.00565799,0,0.830592932,0
2003/4/1 17:30,0.005659522,0,0.830817903,0
2003/4/1 17:45,0.00565799,0,0.830592932,0
2003/4/1 18:00,0.00565799,0,0.830592932,0
2003/4/1 18:15,0.005659522,0,0.830817903,0
2003/4/1 18:30,0.00565799,0,0.830592932,0
2003/4/1 18:45,0.005659522,0,0.830817903,0
2003/4/1 19:00,0.00565799,0,0.830592932,0
2003/4/1 19:15,0.00565799,0,0.830592932,0
2003/4/1 19:30,0.005659522,0,0.830817903,0
2003/4/1 19:45,0.00565799,0,0.830592932,0
2003/4/1 20:00,0.00565799,0,0.830592932,0
2003/4/1 20:15,0.005659522,0,0.830817903,0
2003/4/1 20:30,0.00565799,0,0.830592932,0
2003/4/1 20:45,0.00565799,0,0.830592932,0
2003/4/1 21:00,0.005659522,0,0.830817903,0
2003/4/1 21:15,0.00565799,0,0.830592932,0
2003/4/1 21:30,0.00565799,0,0.830592932,0
2003/4/1 21:45,0.005659522,0,0.830817903,0
2003/4/1 22:00,0.00565799,0,0.830592932,0
2003/4/1 22:15,0.00565799,0,0.830592932,0
2003/4/1 22:30,0.005659522,0,0.830817903,0
2003/4/1 22:45,0.00565799,0,0.830592932,0
2003/4/1 23:00,0.00565799,0,0.830592932,0
2003/4/1 23:15,0.00565799,0,0.830592932,0
2003/4/1 23:30,0.005659522,0,0.830817903,0
2003/4/1 23:45,0.00565799,0,0.830592932,0
2003/4/2 0:00,0.003771483,0,0.553653631,0
2003/4/2 0:15,0,0,0,0
2003/4/2 0:30,0,0,0,0
2003/4/2 0:45,0,0,0,0
2003/4/2 1:00,0,0,0,0
2003/4/2 1:15,0,0,0,0
2003/4/2 1:30,0,0,0,0
2003/4/2 1:45,0,0,0,0
2003/4/2 2:00,0,0,0,0
2003/4/2 2:15,0,0,0,0
2003/4/2 2:30,0,0,0,0
2003/4/2 2:45,0,0,0,0
2003/4/2 3:00,0,0,0,0
2003/4/2 3:15,0,0,0,0
2003/4/2 3:30,0,0,0,0
2003/4/2 3:45,0,0,0,0
2003/4/2 4:00,0,0,0,0
2003/4/2 4:15,0,0,0,0
2003/4/2 4:30,0,0,0,0
2003/4/2 4:45,0,0,0,0
2003/4/2 5:00,0,0,0,0
2003/4/2 5:15,0,0,0,0
2003/4/2 5:30,0,0,0,0
2003/4/2 5:45,0,0,0,0
2003/4/2 6:00,0,0,0,0
2003/4/2 6:15,0,0,0,0
2003/4/2 6:30,0,0,0,0
2003/4/2 6:45,0,0,0,0
2003/4/2 7:00,0,0,0,0
2003/4/2 7:15,0,0,0,0
2003/4/2 7:30,0.009766622,0,1.433740183,0
2003/4/2 7:45,0.011145872,0,1.636214083,0
2003/4/2 8:00,0.00566412,0,0.831492816,0
2003/4/2 8:15,0.007927622,0,1.163774983,0
2003/4/2 8:30,0.00635681,0,0.933179708,0
2003/4/2 8:45,0.006162182,0,0.904608391,0
2003/4/2 9:00,0.007634915,0,1.120805522,0
2003/4/2 9:15,0.00641811,0,0.942178548,0
2003/4/2 9:30,0.007437223,0,1.091784263,0
2003/4/2 9:45,0.006906977,0,1.013944297,0
2003/4/2 10:00,0.006398188,0,0.939253925,0
2003/4/2 10:15,0.005661055,0,0.831042874,0
2003/4/2 10:30,0.005661055,0,0.831042874,0
2003/4/2 10:45,0.005659522,0,0.830817903,0
2003/4/2 11:00,0.005661055,0,0.831042874,0
2003/4/2 11:15,0.005661055,0,0.831042874,0
2003/4/2 11:30,0.00566412,0,0.831492816,0
2003/4/2 11:45,0.005661055,0,0.831042874,0
2003/4/2 12:00,0.005659522,0,0.830817903,0
2003/4/2 12:15,0.00565799,0,0.830592932,0
2003/4/2 12:30,0.00565799,0,0.830592932,0
2003/4/2 12:45,0.005659522,0,0.830817903,0
2003/4/2 13:00,0.00565799,0,0.830592932,0
2003/4/2 13:15,0.001886507,0,0.276939301,0
2003/4/2 13:30,0,0,0,0
2003/4/2 13:45,0,0,0,0
2003/4/2 14:00,0,0,0,0
2003/4/2 14:15,0,0,0,0
2003/4/2 14:30,0,0,0,0
2003/4/2 14:45,0,0,0,0
2003/4/2 15:00,0,0,0,0
2003/4/2 15:15,0,0,0,0
2003/4/2 15:30,0,0,0,0
2003/4/2 15:45,0,0,0,0
2003/4/2 16:00,0,0,0,0
2003/4/2 16:15,0,0,0,0
2003/4/2 16:30,0,0,0,0
2003/4/2 16:45,0,0,0,0
2003/4/2 17:00,0,0,0,0
2003/4/2 17:15,0,0,0,0
2003/4/2 17:30,0,0,0,0
2003/4/2 17:45,0,0,0,0
2003/4/2 18:00,0,0,0,0
2003/4/2 18:15,0,0,0,0
2003/4/2 18:30,0,0,0,0
2003/4/2 18:45,0,0,0,0
2003/4/2 19:00,0.010657005,0,1.564448334,0
2003/4/2 19:15,0.00598901,0,0.879186668,0
2003/4/2 19:30,0.005661055,0,0.831042874,0
2003/4/2 19:45,0.005659522,0,0.830817903,0
2003/4/2 20:00,0.00565799,0,0.830592932,0
2003/4/2 20:15,0.005659522,0,0.830817903,0
2003/4/2 20:30,0.00565799,0,0.830592932,0
2003/4/2 20:45,0.00565799,0,0.830592932,0
2003/4/2 21:00,0.005659522,0,0.830817903,0
2003/4/2 21:15,0.00565799,0,0.830592932,0
2003/4/2 21:30,0.00565799,0,0.830592932,0
2003/4/2 21:45,0.005659522,0,0.830817903,0
2003/4/2 22:00,0.00565799,0,0.830592932,0
2003/4/2 22:15,0.005659522,0,0.830817903,0
2003/4/2 22:30,0.00565799,0,0.830592932,0
2003/4/2 22:45,0.00565799,0,0.830592932,0
2003/4/2 23:00,0.005659522,0,0.830817903,0
2003/4/2 23:15,0.00565799,0,0.830592932,0
2003/4/2 23:30,0.005659522,0,0.830817903,0
2003/4/2 23:45,0.00565799,0,0.830592932,0
2003/4/3 0:00,0.00565799,0,0.830592932,0
2003/4/3 0:15,0.005659522,0,0.830817903,0
2003/4/3 0:30,0.00565799,0,0.830592932,0
2003/4/3 0:45,0.005659522,0,0.830817903,0
2003/4/3 1:00,0.00565799,0,0.830592932,0
2003/4/3 1:15,0.00565799,0,0.830592932,0
2003/4/3 1:30,0.005659522,0,0.830817903,0
2003/4/3 1:45,0.00565799,0,0.830592932,0
2003/4/3 2:00,0.005659522,0,0.830817903,0
2003/4/3 2:15,0.00565799,0,0.830592932,0
2003/4/3 2:30,0.00565799,0,0.830592932,0
2003/4/3 2:45,0.005659522,0,0.830817903,0
2003/4/3 3:00,0.00565799,0,0.830592932,0
2003/4/3 3:15,0.00565799,0,0.830592932,0
2003/4/3 3:30,0.005659522,0,0.830817903,0
2003/4/3 3:45,0.00565799,0,0.830592932,0
2003/4/3 4:00,0.00565799,0,0.830592932,0
2003/4/3 4:15,0.005659522,0,0.830817903,0
2003/4/3 4:30,0.00565799,0,0.830592932,0
2003/4/3 4:45,0.001886507,0,0.276939301,0
2003/4/3 5:00,0,0,0,0
2003/4/3 5:15,0,0,0,0
2003/4/3 5:30,0,0,0,0
2003/4/3 5:45,0,0,0,0
2003/4/3 6:00,0,0,0,0
2003/4/3 6:15,0,0,0,0
2003/4/3 6:30,0,0,0,0
2003/4/3 6:45,0,0,0,0
2003/4/3 7:00,0,0,0,0
2003/4/3 7:15,0,0,0,0
2003/4/3 7:30,0.012540448,0,1.840937693,0
2003/4/3 7:45,0.009625633,0,1.413042851,0
2003/4/3 8:00,0.005981348,0,0.878061813,0
2003/4/3 8:15,0.005662587,0,0.831267845,0
2003/4/3 8:30,0.005661055,0,0.831042874,0
2003/4/3 8:45,0.005834228,0,0.856464597,0
2003/4/3 9:00,0.00640585,0,0.94037878,0
2003/4/3 9:15,0.005661055,0,0.831042874,0
2003/4/3 9:30,0.00565799,0,0.830592932,0
2003/4/3 9:45,0.005659522,0,0.830817903,0
2003/4/3 10:00,0.00565799,0,0.830592932,0
2003/4/3 10:15,0.00565799,0,0.830592932,0
2003/4/3 10:30,0.005659522,0,0.830817903,0
2003/4/3 10:45,0.00565799,0,0.830592932,0
2003/4/3 11:00,0.00565799,0,0.830592932,0
2003/4/3 11:15,0.005659522,0,0.830817903,0
2003/4/3 11:30,0.00565799,0,0.830592932,0
2003/4/3 11:45,0.00565799,0,0.830592932,0
2003/4/3 12:00,0.001886507,0,0.276939301,0
2003/4/3 12:15,0,0,0,0
2003/4/3 12:30,0,0,0,0
2003/4/3 12:45,0,0,0,0
2003/4/3 13:00,0,0,0,0
2003/4/3 13:15,0,0,0,0
2003/4/3 13:30,0,0,0,0
2003/4/3 13:45,0,0,0,0
2003/4/3 14:00,0,0,0,0
2003/4/3 14:15,0,0,0,0
2003/4/3 14:30,0,0,0,0
2003/4/3 14:45,0,0,0,0
2003/4/3 15:00,0,0,0,0
2003/4/3 15:15,0,0,0,0
2003/4/3 15:30,0,0,0,0
2003/4/3 15:45,0,0,0,0
2003/4/3 16:00,0,0,0,0
2003/4/3 16:15,0,0,0,0
2003/4/3 16:30,0,0,0,0
2003/4/3 16:45,0,0,0,0
2003/4/3 17:00,0,0,0,0
2003/4/3 17:15,0,0,0,0
2003/4/3 17:30,0,0,0,0
2003/4/3 17:45,0,0,0,0
2003/4/3 18:00,0,0,0,0
2003/4/3 18:15,0,0,0,0
2003/4/3 18:30,0,0,0,0
2003/4/3 18:45,0,0,0,0
2003/4/3 19:00,0,0,0,0
2003/4/3 19:15,0,0,0,0
2003/4/3 19:30,0,0,0,0
2003/4/3 19:45,0,0,0,0
2003/4/3 20:00,0,0,0,0
2003/4/3 20:15,0,0,0,0
2003/4/3 20:30,0,0,0,0
2003/4/3 20:45,0.00807934,0,1.186047112,0
2003/4/3 21:00,0.00565799,0,0.830592932,0
2003/4/3 21:15,0.005659522,0,0.830817903,0
2003/4/3 21:30,0.00565799,0,0.830592932,0
2003/4/3 21:45,0.005662587,0,0.831267845,0
2003/4/3 22:00,0.005661055,0,0.831042874,0
2003/4/3 22:15,0.005667185,0,0.831942758,0
2003/4/3 22:30,0.00565799,0,0.830592932,0
2003/4/3 22:45,0.005659522,0,0.830817903,0
2003/4/3 23:00,0.00565799,0,0.830592932,0
2003/4/3 23:15,0.00565799,0,0.830592932,0
2003/4/3 23:30,0.005659522,0,0.830817903,0
2003/4/3 23:45,0.00565799,0,0.830592932,0
2003/4/4 0:00,0.00565799,0,0.830592932,0
2003/4/4 0:15,0.005659522,0,0.830817903,0
2003/4/4 0:30,0.00565799,0,0.830592932,0
2003/4/4 0:45,0.00565799,0,0.830592932,0
2003/4/4 1:00,0.005659522,0,0.830817903,0
2003/4/4 1:15,0.00565799,0,0.830592932,0
2003/4/4 1:30,0.00565799,0,0.830592932,0
2003/4/4 1:45,0.005659522,0,0.830817903,0
2003/4/4 2:00,0,0,0,0
2003/4/4 2:15,0,0,0,0
2003/4/4 2:30,0,0,0,0
2003/4/4 2:45,0,0,0,0
2003/4/4 3:00,0,0,0,0
2003/4/4 3:15,0,0,0,0
2003/4/4 3:30,0,0,0,0
2003/4/4 3:45,0,0,0,0
2003/4/4 4:00,0,0,0,0
2003/4/4 4:15,0.006061038,0,0.889760305,0
2003/4/4 4:30,0.008534492,0,1.252863499,0
2003/4/4 4:45,0,0,0,0
2003/4/4 5:00,0,0,0,0
2003/4/4 5:15,0,0,0,0
2003/4/4 5:30,0,0,0,0
2003/4/4 5:45,0,0,0,0
2003/4/4 6:00,0,0,0,0
2003/4/4 6:15,0,0,0,0
2003/4/4 6:30,0,0,0,0
2003/4/4 6:45,0,0,0,0
2003/4/4 7:00,0,0,0,0
2003/4/4 7:15,0.008401165,0,1.233291022,0
2003/4/4 7:30,0.014354927,0,2.107303357,0
2003/4/4 7:45,0.009210325,0,1.35207571,0
2003/4/4 8:00,0.00975896,0,1.432615328,0
2003/4/4 8:15,0.00907853,0,1.332728204,0
2003/4/4 8:30,0.007083215,0,1.039815962,0
2003/4/4 8:45,0.007051033,0,1.035091571,0
2003/4/4 9:00,0.007630318,0,1.120130609,0
2003/4/4 9:15,0.014072947,0,2.065908693,0
2003/4/4 9:30,0.006145325,0,0.90213371,0
2003/4/4 9:45,0.008595793,0,1.261862339,0
2003/4/4 10:00,0.00566412,0,0.831492816,0
2003/4/4 10:15,0.005661055,0,0.831042874,0
2003/4/4 10:30,0.005661055,0,0.831042874,0
2003/4/4 10:45,0.005661055,0,0.831042874,0
2003/4/4 11:00,0.006678635,0,0.980423618,0
2003/4/4 11:15,0.00799352,0,1.173448736,0
2003/4/4 11:30,0.014468333,0,2.123951211,0
2003/4/4 11:45,0.010318322,0,1.514729743,0
2003/4/4 12:00,0.00565799,0,0.830592932,0
2003/4/4 12:15,0.005659522,0,0.830817903,0
2003/4/4 12:30,0.00565799,0,0.830592932,0
2003/4/4 12:45,0.003773015,0,0.553878602,0
2003/4/4 13:00,0,0,0,0
2003/4/4 13:15,0,0,0,0
2003/4/4 13:30,0,0,0,0
2003/4/4 13:45,0,0,0,0
2003/4/4 14:00,0,0,0,0
2003/4/4 14:15,0,0,0,0
2003/4/4 14:30,0,0,0,0
2003/4/4 14:45,0,0,0,0
2003/4/4 15:00,0,0,0,0
2003/4/4 15:15,0,0,0,0
2003/4/4 15:30,0,0,0,0
2003/4/4 15:45,0,0,0,0
2003/4/4 16:00,0,0,0,0
2003/4/4 16:15,0,0,0,0
2003/4/4 16:30,0,0,0,0
2003/4/4 16:45,0,0,0,0
2003/4/4 17:00,0,0,0,0
2003/4/4 17:15,0,0,0,0
2003/4/4 17:30,0,0,0,0
2003/4/4 17:45,0,0,0,0
2003/4/4 18:00,0.011801783,0,1.732501671,0
2003/4/4 18:15,0.01568054,0,2.301903272,0
2003/4/4 18:30,0.00758894,0,1.114056392,0
2003/4/4 18:45,0.00616678,0,0.905283304,0
2003/4/4 19:00,0.00397224,0,0.583124832,0
2003/4/4 19:15,0,0,0,0
2003/4/4 19:30,0.00904175,0,1.3273289,0
2003/4/4 19:45,0.011719028,0,1.720353237,0
2003/4/4 20:00,0.00860652,0,1.263437136,0
2003/4/4 20:15,0.00714145,0,1.04836486,0
2003/4/4 20:30,0.007070955,0,1.038016194,0
2003/4/4 20:45,0.00704337,0,1.033966716,0
2003/4/4 21:00,0.007395845,0,1.085710046,0
2003/4/4 21:15,0.005661055,0,0.831042874,0
2003/4/4 21:30,0.005674848,0,0.833067613,0
2003/4/4 21:45,0.005665652,0,0.831717787,0
2003/4/4 22:00,0.008604988,0,1.263212165,0
2003/4/4 22:15,0.006684765,0,0.981323502,0
2003/4/4 22:30,0.005662587,0,0.831267845,0
2003/4/4 22:45,0.005661055,0,0.831042874,0
2003/4/4 23:00,0.005662587,0,0.831267845,0
2003/4/4 23:15,0.005661055,0,0.831042874,0
2003/4/4 23:30,0.00567638,0,0.833292584,0
2003/4/4 23:45,0.005705498,0,0.837567033,0
2003/4/5 0:00,0.00566412,0,0.831492816,0
2003/4/5 0:15,0.006940693,0,1.018893659,0
2003/4/5 0:30,0.006545307,0,0.960851141,0
2003/4/5 0:45,0.00684721,0,1.005170428,0
2003/4/5 1:00,0.005802045,0,0.851740206,0
2003/4/5 1:15,0.006568295,0,0.964225706,0
2003/4/5 1:30,0.005959892,0,0.874912219,0
2003/4/5 1:45,0.005907787,0,0.867263205,0
2003/4/5 2:00,0.005661055,0,0.831042874,0
2003/4/5 2:15,0.005956828,0,0.874462277,0
2003/4/5 2:30,0.00652845,0,0.95837646,0
2003/4/5 2:45,0.005673315,0,0.832842642,0
2003/4/5 3:00,0.004835037,0,0.709783505,0
2003/4/5 3:15,0,0,0,0
2003/4/5 3:30,0,0,0,0
2003/4/5 3:45,0,0,0,0
2003/4/5 4:00,0,0,0,0
2003/4/5 4:15,0,0,0,0
2003/4/5 4:30,0,0,0,0
2003/4/5 4:45,0,0,0,0
2003/4/5 5:00,0,0,0,0
2003/4/5 5:15,0,0,0,0
2003/4/5 5:30,0,0,0,0
2003/4/5 5:45,0,0,0,0
2003/4/5 6:00,0,0,0,0
2003/4/5 6:15,0,0,0,0
2003/4/5 6:30,0,0,0,0
2003/4/5 6:45,0,0,0,0
2003/4/5 7:00,0,0,0,0
2003/4/5 7:15,0,0,0,0
2003/4/5 7:30,0,0,0,0
2003/4/5 7:45,0,0,0,0
2003/4/5 8:00,0.013757253,0,2.019564667,0
2003/4/5 8:15,0.02540885,0,3.73001918,0
2003/4/5 8:30,0.021309413,0,3.128221755,0
2003/4/5 8:45,0.01636097,0,2.401790396,0
2003/4/5 9:00,0.015003175,0,2.20246609,0
2003/4/5 9:15,0.015714255,0,2.306852634,0
2003/4/5 9:30,0.01052521,0,1.545100828,0
2003/4/5 9:45,0.007832608,0,1.149826781,0
2003/4/5 10:00,0.009811065,0,1.440264342,0
2003/4/5 10:15,0.006867133,0,1.008095051,0
2003/4/5 10:30,0.00654684,0,0.961076112,0
2003/4/5 10:45,0.00692077,0,1.015969036,0
2003/4/5 11:00,0.00837971,0,1.230141428,0
2003/4/5 11:15,0.007244128,0,1.063437917,0
2003/4/5 11:30,0.005924645,0,0.869737886,0
2003/4/5 11:45,0.00757055,0,1.11135674,0
2003/4/5 12:00,0.007745255,0,1.137003434,0
2003/4/5 12:15,0.006831885,0,1.002920718,0
2003/4/5 12:30,0.007236465,0,1.062313062,0
2003/4/5 12:45,0.00774219,0,1.136553492,0
2003/4/5 13:00,0.009644023,0,1.415742503,0
2003/4/5 13:15,0.005661055,0,0.831042874,0
2003/4/5 13:30,0.005662587,0,0.831267845,0
2003/4/5 13:45,0.005661055,0,0.831042874,0
2003/4/5 14:00,0.005812773,0,0.853315003,0
2003/4/5 14:15,0.005661055,0,0.831042874,0
2003/4/5 14:30,0.005661055,0,0.831042874,0
2003/4/5 14:45,0.005665652,0,0.831717787,0
2003/4/5 15:00,0.005667185,0,0.831942758,0
2003/4/5 15:15,0.00593997,0,0.871987596,0
2003/4/5 15:30,0.005661055,0,0.831042874,0
2003/4/5 15:45,0.005662587,0,0.831267845,0
2003/4/5 16:00,0.005661055,0,0.831042874,0
2003/4/5 16:15,0.005661055,0,0.831042874,0
2003/4/5 16:30,0.00377608,0,0.554328544,0
2003/4/5 16:45,0.00836132,0,1.227441776,0
2003/4/5 17:00,0.011872277,0,1.742850337,0
2003/4/5 17:15,0.010382687,0,1.524178525,0
2003/4/5 17:30,0.0081529,0,1.19684572,0
2003/4/5 17:45,0.008638702,0,1.268161527,0
2003/4/5 18:00,0.00771767,0,1.132953956,0
2003/4/5 18:15,0.008604988,0,1.263212165,0
2003/4/5 18:30,0.00720888,0,1.058263584,0
2003/4/5 18:45,0.008332202,0,1.223167327,0
2003/4/5 19:00,0.00720888,0,1.058263584,0
2003/4/5 19:15,0.008252512,0,1.211468835,0
2003/4/5 19:30,0.007083215,0,1.039815962,0
2003/4/5 19:45,0.008375113,0,1.229466515,0
2003/4/5 20:00,0.0076625,0,1.124855,0
2003/4/5 20:15,0,0,0,0
2003/4/5 20:30,0,0,0,0
2003/4/5 20:45,0,0,0,0
2003/4/5 21:00,0,0,0,0
2003/4/5 21:15,0,0,0,0
2003/4/5 21:30,0,0,0,0
2003/4/5 21:45,0.006652582,0,0.976599111,0
2003/4/5 22:00,0.009205728,0,1.351400797,0
2003/4/5 22:15,0.007218075,0,1.05961341,0
2003/4/5 22:30,0.006580555,0,0.966025474,0
2003/4/5 22:45,0.006131532,0,0.900108971,0
2003/4/5 23:00,0.007403507,0,1.086834901,0
2003/4/5 23:15,0.007696215,0,1.129804362,0
2003/4/5 23:30,0.007100072,0,1.042290643,0
2003/4/5 23:45,0.007691618,0,1.129129449,0
2003/4/6 0:00,0.005736148,0,0.842066453,0
2003/4/6 0:15,0.006232678,0,0.914957057,0
2003/4/6 0:30,0.007408105,0,1.087509814,0
2003/4/6 0:45,0.005667185,0,0.831942758,0
2003/4/6 1:00,0.006985135,0,1.025417818,0
2003/4/6 1:15,0.007824945,0,1.148701926,0
2003/4/6 1:30,0.00798126,0,1.171648968,0
2003/4/6 1:45,0.009257833,0,1.359049811,0
2003/4/6 2:00,0.006628062,0,0.972999575,0
2003/4/6 2:15,0.008223395,0,1.207194386,0
2003/4/6 2:30,0.00910305,0,1.33632774,0
2003/4/6 2:45,0.005759135,0,0.845441018,0
2003/4/6 3:00,0.00566412,0,0.831492816,0
2003/4/6 3:15,0.005662587,0,0.831267845,0
2003/4/6 3:30,0.007032643,0,1.032391919,0
2003/4/6 3:45,0.008805745,0,1.292683366,0
2003/4/6 4:00,0.006085558,0,0.893359841,0
2003/4/6 4:15,0.00566412,0,0.831492816,0
2003/4/6 4:30,0.015971715,0,2.344647762,0
2003/4/6 4:45,0,0,0,0
2003/4/6 5:00,0,0,0,0
2003/4/6 5:15,0,0,0,0
2003/4/6 5:30,0,0,0,0
2003/4/6 5:45,0,0,0,0
2003/4/6 6:00,0,0,0,0
2003/4/6 6:15,0,0,0,0
2003/4/6 6:30,0,0,0,0
2003/4/6 6:45,0,0,0,0
2003/4/6 7:00,0,0,0,0
2003/4/6 7:15,0,0,0,0
2003/4/6 7:30,0,0,0,0
2003/4/6 7:45,0,0,0,0
2003/4/6 8:00,0,0,0,0
2003/4/6 8:15,0,0,0,0
2003/4/6 8:30,0,0,0,0
2003/4/6 8:45,0,0,0,0
2003/4/6 9:00,0,0,0,0
2003/4/6 9:15,0,0,0,0
2003/4/6 9:30,0.003080325,0,0.45219171,0
2003/4/6 9:45,0.026257855,0,3.854653114,0
2003/4/6 10:00,0.020058892,0,2.944645419,0
2003/4/6 10:15,0.01316724,0,1.932950832,0
2003/4/6 10:30,0.01167765,0,1.71427902,0
2003/4/6 10:45,0.00566412,0,0.831492816,0
2003/4/6 11:00,0.005674848,0,0.833067613,0
2003/4/6 11:15,0.001886507,0,0.276939301,0
2003/4/6 11:30,0,0,0,0
2003/4/6 11:45,0,0,0,0
2003/4/6 12:00,0,0,0,0
2003/4/6 12:15,0,0,0,0
2003/4/6 12:30,0,0,0,0
2003/4/6 12:45,0,0,0,0
2003/4/6 13:00,0,0,0,0
2003/4/6 13:15,0,0,0,0
2003/4/6 13:30,0,0,0,0
2003/4/6 13:45,0,0,0,0
2003/4/6 14:00,0,0,0,0
2003/4/6 14:15,0,0,0,0
2003/4/6 14:30,0,0,0,0
2003/4/6 14:45,0,0,0,0
2003/4/6 15:00,0,0,0,0
2003/4/6 15:15,0,0,0,0
2003/4/6 15:30,0,0,0,0
2003/4/6 15:45,0,0,0,0
2003/4/6 16:00,0,0,0,0
2003/4/6 16:15,0,0,0,0
2003/4/6 16:30,0,0,0,0
2003/4/6 16:45,0.006600477,0,0.968950097,0
2003/4/6 17:00,0.008034897,0,1.179522953,0
2003/4/6 17:15,0.010005693,0,1.468835659,0
2003/4/6 17:30,0.007034175,0,1.03261689,0
2003/4/6 17:45,0.00697594,0,1.024067992,0
2003/4/6 18:00,0.006057973,0,0.889310363,0
2003/4/6 18:15,0.009038685,0,1.326878958,0
2003/4/6 18:30,0.005661055,0,0.831042874,0
2003/4/6 18:45,0.006868665,0,1.008320022,0
2003/4/6 19:00,0.005985945,0,0.878736726,0
2003/4/6 19:15,0.006793572,0,0.997296443,0
2003/4/6 19:30,0.005662587,0,0.831267845,0
2003/4/6 19:45,0.005661055,0,0.831042874,0
2003/4/6 20:00,0.005661055,0,0.831042874,0
2003/4/6 20:15,0.005662587,0,0.831267845,0
2003/4/6 20:30,0.005665652,0,0.831717787,0
2003/4/6 20:45,0.006894718,0,1.012144529,0
2003/4/6 21:00,0.005667185,0,0.831942758,0
2003/4/6 21:15,0.005661055,0,0.831042874,0
2003/4/6 21:30,0.005661055,0,0.831042874,0
2003/4/6 21:45,0.00654684,0,0.961076112,0
2003/4/6 22:00,0.006177508,0,0.906858101,0
2003/4/6 22:15,0.006433435,0,0.944428258,0
2003/4/6 22:30,0.005659522,0,0.830817903,0
2003/4/6 22:45,0.00565799,0,0.830592932,0
2003/4/6 23:00,0.005659522,0,0.830817903,0
2003/4/6 23:15,0.00565799,0,0.830592932,0
2003/4/6 23:30,0.005659522,0,0.830817903,0
2003/4/6 23:45,0.00565799,0,0.830592932,0
2003/4/7 0:00,0.005659522,0,0.830817903,0
2003/4/7 0:15,0.00565799,0,0.830592932,0
2003/4/7 0:30,0.005659522,0,0.830817903,0
2003/4/7 0:45,0.00565799,0,0.830592932,0
2003/4/7 1:00,0.005659522,0,0.830817903,0
2003/4/7 1:15,0.00565799,0,0.830592932,0
2003/4/7 1:30,0.005659522,0,0.830817903,0
2003/4/7 1:45,0.00565799,0,0.830592932,0
2003/4/7 2:00,0.005659522,0,0.830817903,0
2003/4/7 2:15,0.001886507,0,0.276939301,0
2003/4/7 2:30,0,0,0,0
2003/4/7 2:45,0,0,0,0
2003/4/7 3:00,0,0,0,0
2003/4/7 3:15,0,0,0,0
2003/4/7 3:30,0,0,0,0
2003/4/7 3:45,0,0,0,0
2003/4/7 4:00,0,0,0,0
2003/4/7 4:15,0,0,0,0
2003/4/7 4:30,0,0,0,0
2003/4/7 4:45,0,0,0,0
2003/4/7 5:00,0,0,0,0
2003/4/7 5:15,0,0,0,0
2003/4/7 5:30,0,0,0,0
2003/4/7 5:45,0,0,0,0
2003/4/7 6:00,0,0,0,0
2003/4/7 6:15,0,0,0,0
2003/4/7 6:30,0,0,0,0
2003/4/7 6:45,0,0,0,0
2003/4/7 7:00,0,0,0,0
2003/4/7 7:15,0.01225387,0,1.798868116,0
2003/4/7 7:30,0.022642688,0,3.323946525,0
2003/4/7 7:45,0.01718239,0,2.522374852,0
2003/4/7 8:00,0.01406222,0,2.064333896,0
2003/4/7 8:15,0.009276222,0,1.361749463,0
2003/4/7 8:30,0.007549095,0,1.108207146,0
2003/4/7 8:45,0.01227839,0,1.802467652,0
2003/4/7 9:00,0.007162905,0,1.051514454,0
2003/4/7 9:15,0.006756793,0,0.991897139,0
2003/4/7 9:30,0.005662587,0,0.831267845,0
2003/4/7 9:45,0.00700659,0,1.028567412,0
2003/4/7 10:00,0.005659522,0,0.830817903,0
2003/4/7 10:15,0.00565799,0,0.830592932,0
2003/4/7 10:30,0.005659522,0,0.830817903,0
2003/4/7 10:45,0.00565799,0,0.830592932,0
2003/4/7 11:00,0,0,0,0
2003/4/7 11:15,0,0,0,0
2003/4/7 11:30,0,0,0,0
2003/4/7 11:45,0,0,0,0
2003/4/7 12:00,0,0,0,0
2003/4/7 12:15,0,0,0,0
2003/4/7 12:30,0,0,0,0
2003/4/7 12:45,0,0,0,0
2003/4/7 13:00,0,0,0,0
2003/4/7 13:15,0,0,0,0
2003/4/7 13:30,0,0,0,0
2003/4/7 13:45,0,0,0,0
2003/4/7 14:00,0,0,0,0
2003/4/7 14:15,0,0,0,0
2003/4/7 14:30,0,0,0,0
2003/4/7 14:45,0,0,0,0
2003/4/7 15:00,0,0,0,0
2003/4/7 15:15,0,0,0,0
2003/4/7 15:30,0,0,0,0
2003/4/7 15:45,0,0,0,0
2003/4/7 16:00,0,0,0,0
2003/4/7 16:15,0,0,0,0
2003/4/7 16:30,0,0,0,0
2003/4/7 16:45,0,0,0,0
2003/4/7 17:00,0,0,0,0
2003/4/7 17:15,0,0,0,0
2003/4/7 17:30,0,0,0,0
2003/4/7 17:45,0,0,0,0
2003/4/7 18:00,0,0,0,0
2003/4/7 18:15,0,0,0,0
2003/4/7 18:30,0,0,0,0
2003/4/7 18:45,0,0,0,0
2003/4/7 19:00,0,0,0,0
2003/4/7 19:15,0,0,0,0
2003/4/7 19:30,0.007296233,0,1.071086931,0
2003/4/7 19:45,0.005659522,0,0.830817903,0
2003/4/7 20:00,0.00565799,0,0.830592932,0
2003/4/7 20:15,0.00565799,0,0.830592932,0
2003/4/7 20:30,0.005659522,0,0.830817903,0
2003/4/7 20:45,0.00565799,0,0.830592932,0
2003/4/7 21:00,0.00565799,0,0.830592932,0
2003/4/7 21:15,0.005659522,0,0.830817903,0
2003/4/7 21:30,0.00565799,0,0.830592932,0
2003/4/7 21:45,0.00565799,0,0.830592932,0
2003/4/7 22:00,0.00565799,0,0.830592932,0
2003/4/7 22:15,0,0,0,0
2003/4/7 22:30,0,0,0,0
2003/4/7 22:45,0,0,0,0
2003/4/7 23:00,0,0,0,0
2003/4/7 23:15,0.00397224,0,0.583124832,0
2003/4/7 23:30,0.005659522,0,0.830817903,0
2003/4/7 23:45,0.00565799,0,0.830592932,0
2003/4/8 0:00,0.005659522,0,0.830817903,0
2003/4/8 0:15,0.00565799,0,0.830592932,0
2003/4/8 0:30,0.00565799,0,0.830592932,0
2003/4/8 0:45,0.003771483,0,0.553653631,0
2003/4/8 1:00,0,0,0,0
2003/4/8 1:15,0,0,0,0
2003/4/8 1:30,0,0,0,0
2003/4/8 1:45,0,0,0,0
2003/4/8 2:00,0,0,0,0
2003/4/8 2:15,0,0,0,0
2003/4/8 2:30,0,0,0,0
2003/4/8 2:45,0,0,0,0
2003/4/8 3:00,0,0,0,0
2003/4/8 3:15,0,0,0,0
2003/4/8 3:30,0,0,0,0
2003/4/8 3:45,0,0,0,0
2003/4/8 4:00,0,0,0,0
2003/4/8 4:15,0,0,0,0
2003/4/8 4:30,0,0,0,0
2003/4/8 4:45,0,0,0,0
2003/4/8 5:00,0,0,0,0
2003/4/8 5:15,0,0,0,0
2003/4/8 5:30,0,0,0,0